QPF
0.01 0.01 0.00 0.00 0.00 0.01 0.00 0.00 0.00 0.00 0.00 0.00 0.00 0.00 0.00 0.00 0.00 0.00 0.00 0.00 0.00 0.00 0.00 0.00 0.00 0.01 0.01 0.02 0.01 0.01 0.00 0.00 0.00 0.00 0.00 0.00 0.00 0.00 0.00 0.00 0.00 0.00 0.01 0.01
0.01 0.00 0.00 0.00 0.00 0.00 0.00 0.01 0.00 0.00 0.00 0.00 0.00 0.00 0.00 0.00 0.00 0.00 0.00 0.00 0.00 0.00 0.00 0.00 0.00 0.00 0.01 0.01 0.01 0.01 0.00 0.00 0.00 0.00 0.00 0.00 0.00 0.00 0.00 0.00 0.00 0.00 0.01 0.01
0.01 0.00 0.00 0.00 0.00 0.00 0.00 0.01 0.02 0.01 0.00 0.00 0.00 0.00 0.00 0.01 0.00 0.00 0.00 0.00 0.00 0.00 0.00 0.00 0.00 0.00 0.01 0.01 0.00 0.01 0.01 0.01 0.00 0.00 0.00 0.00 0.00 0.00 0.00 0.00 0.00 0.00 0.00 0.01
0.01 0.00 0.00 0.00 0.00 0.00 0.01 0.00 0.01 0.02 0.01 0.00 0.00 0.00 0.00 0.01 0.01 0.00 0.00 0.00 0.00 0.00 0.00 0.00 0.00 0.01 0.01 0.01 0.01 0.01 0.01 0.01 0.00 0.00 0.00 0.00 0.00 0.00 0.00 0.00 0.00 0.00 0.00 0.00
0.01 0.01 0.00 0.00 0.00 0.00 0.00 0.00 0.00 0.01 0.01 0.01 0.00 0.01 0.01 0.00 0.01 0.01 0.00 0.00 0.00 0.00 0.00 0.00 0.01 0.01 0.01 0.01 0.01 0.01 0.01 0.01 0.00 0.00 0.00 0.00 0.00 0.00 0.00 0.00 0.00 0.00 0.00 0.01
0.01 0.01 0.01 0.00 0.01 0.01 0.00 0.00 0.00 0.01 0.01 0.01 0.00 0.00 0.00 0.00 0.00 0.00 0.00 0.00 0.00 0.00 0.00 0.01 0.01 0.01 0.01 0.01 0.01 0.01 0.01 0.01 0.00 0.00 0.00 0.00 0.00 0.00 0.00 0.00 0.01 0.01 0.01 0.02
0.01 0.01 0.01 0.01 0.02 0.01 0.01 0.01 0.01 0.01 0.01 0.00 0.00 0.00 0.00 0.00 0.00 0.00 0.00 0.00 0.00 0.01 0.01 0.01 0.01 0.01 0.01 0.01 0.01 0.01 0.01 0.01 0.00 0.00 0.00 0.00 0.00 0.00 0.00 0.00 0.00 0.00 0.02 0.03
0.01 0.01 0.01 0.01 0.01 0.01 0.00 0.00 0.00 0.01 0.01 0.00 0.00 0.00 0.00 0.00 0.00 0.00 0.00 0.00 0.00 0.01 0.02 0.02 0.03 0.02 0.02 0.02 0.02 0.01 0.01 0.01 0.01 0.00 0.00 0.00 0.00 0.00 0.00 0.00 0.00 0.00 0.01 0.02
0.01 0.01 0.01 0.00 0.00 0.00 0.00 0.00 0.00 0.00 0.00 0.00 0.00 0.01 0.00 0.00 0.00 0.00 0.00 0.00 0.00 0.00 0.01 0.02 0.03 0.03 0.01 0.01 0.02 0.02 0.02 0.01 0.01 0.01 0.00 0.00 0.00 0.00 0.00 0.00 0.00 0.00 0.00 0.01
0.01 0.01 0.01 0.00 0.01 0.01 0.01 0.01 0.01 0.01 0.01 0.01 0.01 0.01 0.01 0.00 0.01 0.00 0.00 0.00 0.00 0.00 0.00 0.00 0.01 0.03 0.01 0.01 0.01 0.02 0.02 0.02 0.02 0.01 0.01 0.00 0.00 0.00 0.00 0.00 0.00 0.00 0.00 0.00
0.01 0.01 0.01 0.01 0.00 0.00 0.00 0.01 0.01 0.01 0.01 0.01 0.01 0.01 0.01 0.01 0.01 0.00 0.00 0.00 0.00 0.00 0.00 0.00 0.00 0.01 0.02 0.01 0.01 0.01 0.02 0.02 0.02 0.02 0.01 0.00 0.00 0.00 0.00 0.00 0.00 0.00 0.00 0.00
0.00 0.01 0.01 0.01 0.01 0.01 0.01 0.01 0.00 0.01 0.01 0.01 0.01 0.01 0.01 0.02 0.01 0.00 0.00 0.00 0.00 0.00 0.00 0.00 0.00 0.01 0.02 0.02 0.02 0.02 0.03 0.02 0.02 0.02 0.01 0.01 0.01 0.01 0.00 0.00 0.00 0.01 0.01 0.01
0.00 0.00 0.01 0.01 0.01 0.01 0.01 0.00 0.00 0.00 0.00 0.01 0.01 0.01 0.01 0.02 0.02 0.01 0.00 0.00 0.00 0.00 0.00 0.00 0.00 0.00 0.01 0.03 0.04 0.04 0.04 0.03 0.03 0.03 0.02 0.02 0.02 0.02 0.01 0.01 0.01 0.01 0.01 0.01
0.00 0.00 0.00 0.01 0.01 0.01 0.00 0.00 0.00 0.01 0.00 0.00 0.01 0.01 0.01 0.01 0.01 0.01 0.00 0.00 0.01 0.01 0.01 0.01 0.01 0.01 0.01 0.02 0.02 0.02 0.03 0.04 0.04 0.04 0.04 0.03 0.02 0.02 0.02 0.02 0.01 0.01 0.01 0.01
0.00 0.00 0.00 0.01 0.01 0.01 0.01 0.00 0.01 0.01 0.00 0.00 0.00 0.01 0.01 0.01 0.01 0.01 0.01 0.01 0.00 0.00 0.01 0.01 0.01 0.01 0.01 0.01 0.02 0.02 0.03 0.04 0.05 0.04 0.04 0.03 0.03 0.03 0.02 0.02 0.01 0.01 0.01 0.01
0.00 0.00 0.00 0.01 0.01 0.01 0.01 0.00 0.01 0.01 0.01 0.01 0.01 0.01 0.01 0.01 0.00 0.00 0.01 0.00 0.01 0.01 0.01 0.01 0.01 0.01 0.01 0.02 0.03 0.04 0.04 0.04 0.05 0.05 0.04 0.03 0.02 0.02 0.02 0.01 0.01 0.01 0.01 0.01
0.00 0.00 0.00 0.00 0.01 0.01 0.01 0.01 0.01 0.00 0.01 0.01 0.00 0.00 0.01 0.01 0.01 0.00 0.00 0.00 0.01 0.01 0.01 0.01 0.01 0.02 0.02 0.03 0.03 0.04 0.04 0.04 0.03 0.03 0.02 0.02 0.01 0.01 0.01 0.02 0.01 0.01 0.01 0.00
0.00 0.00 0.00 0.00 0.01 0.01 0.00 0.00 0.00 0.00 0.00 0.01 0.01 0.01 0.00 0.01 0.01 0.01 0.00 0.00 0.01 0.01 0.01 0.01 0.02 0.03 0.03 0.03 0.03 0.03 0.03 0.03 0.02 0.02 0.02 0.01 0.02 0.02 0.02 0.01 0.01 0.01 0.01 0.00
0.00 0.00 0.00 0.00 0.00 0.00 0.00 0.00 0.00 0.01 0.00 0.00 0.01 0.01 0.01 0.01 0.01 0.01 0.01 0.01 0.01 0.01 0.01 0.02 0.04 0.04 0.04 0.03 0.03 0.02 0.02 0.02 0.02 0.02 0.01 0.02 0.02 0.02 0.01 0.01 0.01 0.01 0.01 0.01
0.00 0.00 0.00 0.00 0.01 0.00 0.00 0.00 0.00 0.01 0.01 0.01 0.01 0.01 0.01 0.01 0.02 0.02 0.01 0.02 0.01 0.01 0.02 0.03 0.03 0.03 0.02 0.02 0.02 0.02 0.01 0.01 0.02 0.02 0.02 0.03 0.02 0.02 0.02 0.01 0.01 0.01 0.01 0.01
0.00 0.00 0.00 0.00 0.00 0.00 0.00 0.00 0.00 0.01 0.01 0.01 0.01 0.01 0.01 0.01 0.01 0.01 0.01 0.02 0.01 0.01 0.02 0.01 0.01 0.01 0.02 0.01 0.01 0.02 0.01 0.01 0.01 0.01 0.01 0.02 0.02 0.03 0.02 0.02 0.02 0.02 0.02 0.01
0.00 0.00 0.00 0.00 0.01 0.00 0.00 0.01 0.01 0.01 0.01 0.01 0.01 0.01 0.01 0.01 0.01 0.01 0.01 0.01 0.01 0.01 0.01 0.01 0.01 0.01 0.02 0.01 0.01 0.01 0.01 0.02 0.02 0.01 0.00 0.01 0.02 0.03 0.03 0.02 0.02 0.01 0.01 0.01
0.00 0.00 0.00 0.01 0.01 0.00 0.01 0.01 0.01 0.01 0.01 0.01 0.01 0.01 0.01 0.01 0.01 0.01 0.01 0.01 0.01 0.01 0.01 0.01 0.02 0.01 0.02 0.02 0.01 0.01 0.02 0.02 0.02 0.02 0.01 0.01 0.02 0.03 0.02 0.02 0.01 0.01 0.01 0.01
0.00 0.01 0.01 0.01 0.00 0.00 0.01 0.02 0.01 0.01 0.01 0.01 0.01 0.02 0.03 0.02 0.02 0.01 0.02 0.02 0.02 0.01 0.01 0.01 0.02 0.02 0.01 0.02 0.01 0.02 0.02 0.03 0.02 0.01 0.02 0.02 0.01 0.02 0.02 0.02 0.01 0.01 0.01 0.01
0.01 0.01 0.02 0.03 0.02 0.01 0.01 0.01 0.01 0.01 0.01 0.01 0.03 0.03 0.04 0.04 0.02 0.02 0.02 0.02 0.02 0.02 0.02 0.02 0.02 0.01 0.01 0.01 0.01 0.02 0.02 0.03 0.02 0.02 0.02 0.02 0.01 0.02 0.02 0.02 0.01 0.01 0.01 0.01
0.01 0.02 0.03 0.03 0.03 0.02 0.01 0.01 0.01 0.01 0.01 0.02 0.03 0.02 0.02 0.01 0.01 0.01 0.01 0.02 0.02 0.03 0.03 0.03 0.03 0.02 0.02 0.01 0.01 0.01 0.02 0.02 0.03 0.02 0.03 0.03 0.02 0.02 0.02 0.02 0.02 0.02 0.01 0.02
MSLP
1013.72 1014.33 1014.80 1015.13 1015.33 1015.45 1015.52 1015.57 1015.60 1015.61 1015.59 1015.52 1015.39 1015.20 1014.98 1014.74 1014.51 1014.31 1014.16 1014.04 1013.96 1013.88 1013.78 1013.66 1013.51 1013.34 1013.17 1013.02 1012.91 1012.85 1012.85 1012.90 1012.99 1013.10 1013.21 1013.30 1013.36 1013.38 1013.36 1013.31 1013.24 1013.17 1013.11 1013.09
1014.31 1014.74 1015.02 1015.16 1015.24 1015.30 1015.38 1015.51 1015.66 1015.80 1015.89 1015.88 1015.76 1015.52 1015.20 1014.83 1014.48 1014.19 1013.98 1013.86 1013.83 1013.83 1013.85 1013.83 1013.76 1013.63 1013.46 1013.29 1013.13 1013.04 1013.01 1013.07 1013.20 1013.37 1013.55 1013.70 1013.81 1013.86 1013.84 1013.76 1013.65 1013.53 1013.45 1013.41
1014.65 1014.87 1014.96 1014.95 1014.94 1014.99 1015.14 1015.38 1015.68 1015.98 1016.18 1016.24 1016.12 1015.83 1015.39 1014.88 1014.39 1013.99 1013.72 1013.60 1013.61 1013.71 1013.84 1013.94 1013.96 1013.89 1013.75 1013.56 1013.37 1013.23 1013.18 1013.23 1013.37 1013.58 1013.81 1014.03 1014.18 1014.25 1014.23 1014.13 1013.99 1013.85 1013.75 1013.71
1014.74 1014.78 1014.69 1014.58 1014.53 1014.62 1014.87 1015.28 1015.76 1016.22 1016.56 1016.68 1016.55 1016.18 1015.61 1014.95 1014.31 1013.78 1013.43 1013.29 1013.35 1013.53 1013.77 1013.98 1014.11 1014.11 1014.00 1013.80 1013.59 1013.42 1013.33 1013.36 1013.49 1013.71 1013.97 1014.21 1014.40 1014.48 1014.47 1014.37 1014.22 1014.07 1013.96 1013.92
1014.69 1014.55 1014.34 1014.16 1014.12 1014.29 1014.70 1015.28 1015.96 1016.59 1017.04 1017.22 1017.07 1016.61 1015.91 1015.08 1014.27 1013.60 1013.17 1013.00 1013.07 1013.32 1013.66 1013.97 1014.19 1014.27 1014.20 1014.02 1013.78 1013.57 1013.44 1013.43 1013.54 1013.74 1014.00 1014.25 1014.45 1014.55 1014.55 1014.45 1014.31 1014.16 1014.05 1014.02
1014.58 1014.31 1014.01 1013.81 1013.83 1014.11 1014.68 1015.45 1016.30 1017.08 1017.63 1017.85 1017.67 1017.11 1016.27 1015.28 1014.30 1013.50 1012.96 1012.73 1012.80 1013.10 1013.51 1013.91 1014.22 1014.36 1014.34 1014.17 1013.93 1013.68 1013.51 1013.44 1013.51 1013.68 1013.92 1014.16 1014.35 1014.46 1014.46 1014.38 1014.25 1014.11 1014.01 1013.99
1014.49 1014.13 1013.79 1013.62 1013.71 1014.12 1014.83 1015.76 1016.76 1017.65 1018.27 1018.48 1018.26 1017.61 1016.64 1015.50 1014.38 1013.45 1012.81 1012.52 1012.57 1012.88 1013.34 1013.81 1014.18 1014.39 1014.41 1014.27 1014.02 1013.75 1013.54 1013.43 1013.44 1013.56 1013.76 1013.97 1014.15 1014.25 1014.26 1014.19 1014.07 1013.94 1013.85 1013.84
1014.46 1014.06 1013.72 1013.60 1013.77 1014.28 1015.11 1016.15 1017.24 1018.18 1018.81 1019.01 1018.73 1018.00 1016.93 1015.68 1014.46 1013.42 1012.71 1012.37 1012.39 1012.70 1013.17 1013.68 1014.09 1014.35 1014.41 1014.30 1014.07 1013.79 1013.55 1013.40 1013.37 1013.44 1013.59 1013.77 1013.92 1014.01 1014.01 1013.94 1013.83 1013.71 1013.62 1013.60
1014.48 1014.08 1013.79 1013.72 1013.97 1014.56 1015.45 1016.52 1017.62 1018.55 1019.15 1019.30 1018.96 1018.17 1017.04 1015.74 1014.47 1013.39 1012.64 1012.27 1012.26 1012.55 1013.02 1013.54 1013.98 1014.27 1014.37 1014.29 1014.08 1013.82 1013.58 1013.41 1013.34 1013.38 1013.48 1013.62 1013.73 1013.80 1013.79 1013.71 1013.60 1013.47 1013.38 1013.34
1014.48 1014.15 1013.93 1013.94 1014.24 1014.85 1015.73 1016.77 1017.79 1018.63 1019.15 1019.22 1018.83 1018.02 1016.89 1015.61 1014.37 1013.32 1012.58 1012.21 1012.20 1012.47 1012.93 1013.43 1013.87 1014.17 1014.30 1014.26 1014.09 1013.86 1013.64 1013.48 1013.40 1013.41 1013.48 1013.58 1013.66 1013.69 1013.66 1013.57 1013.44 1013.30 1013.18 1013.11
1014.45 1014.21 1014.09 1014.17 1014.50 1015.09 1015.89 1016.80 1017.68 1018.37 1018.75 1018.74 1018.31 1017.52 1016.45 1015.27 1014.13 1013.19 1012.53 1012.21 1012.21 1012.48 1012.90 1013.37 1013.79 1014.09 1014.23 1014.22 1014.11 1013.93 1013.76 1013.63 1013.56 1013.57 1013.62 1013.68 1013.73 1013.73 1013.67 1013.55 1013.40 1013.23 1013.08 1012.96
1014.33 1014.24 1014.23 1014.38 1014.71 1015.23 1015.90 1016.62 1017.29 1017.78 1018.00 1017.88 1017.43 1016.69 1015.75 1014.73 1013.78 1013.00 1012.48 1012.26 1012.30 1012.56 1012.95 1013.38 1013.76 1014.03 1014.18 1014.21 1014.14 1014.03 1013.92 1013.84 1013.81 1013.83 1013.88 1013.92 1013.94 1013.91 1013.82 1013.67 1013.48 1013.28 1013.09 1012.93
1014.16 1014.22 1014.34 1014.55 1014.87 1015.29 1015.78 1016.27 1016.68 1016.93 1016.97 1016.75 1016.29 1015.62 1014.84 1014.04 1013.32 1012.77 1012.43 1012.33 1012.43 1012.70 1013.05 1013.43 1013.75 1014.00 1014.14 1014.20 1014.18 1014.15 1014.11 1014.10 1014.12 1014.17 1014.22 1014.26 1014.25 1014.19 1014.07 1013.89 1013.68 1013.44 1013.21 1013.01
1013.97 1014.20 1014.44 1014.70 1014.99 1015.29 1015.58 1015.81 1015.94 1015.94 1015.78 1015.46 1014.99 1014.42 1013.82 1013.26 1012.79 1012.48 1012.35 1012.38 1012.56 1012.84 1013.16 1013.48 1013.75 1013.96 1014.09 1014.17 1014.21 1014.25 1014.30 1014.36 1014.45 1014.54 1014.61 1014.64 1014.62 1014.54 1014.39 1014.18 1013.94 1013.68 1013.42 1013.18
1013.82 1014.19 1014.55 1014.85 1015.10 1015.27 1015.35 1015.32 1015.18 1014.92 1014.57 1014.13 1013.65 1013.17 1012.74 1012.41 1012.20 1012.13 1012.19 1012.37 1012.62 1012.92 1013.22 1013.48 1013.71 1013.88 1014.00 1014.11 1014.21 1014.32 1014.45 1014.60 1014.75 1014.89 1014.98 1015.02 1014.99 1014.88 1014.71 1014.49 1014.23 1013.96 1013.68 1013.42
1013.74 1014.24 1014.67 1015.00 1015.19 1015.23 1015.11 1014.84 1014.44 1013.95 1013.40 1012.86 1012.36 1011.95 1011.67 1011.53 1011.54 1011.68 1011.92 1012.22 1012.55 1012.87 1013.15 1013.38 1013.57 1013.72 1013.85 1013.99 1014.16 1014.35 1014.57 1014.80 1015.01 1015.19 1015.31 1015.35 1015.31 1015.19 1015.01 1014.78 1014.51 1014.24 1013.96 1013.68
1013.74 1014.30 1014.78 1015.10 1015.23 1015.14 1014.84 1014.36 1013.73 1013.03 1012.32 1011.67 1011.15 1010.79 1010.61 1010.62 1010.80 1011.11 1011.49 1011.89 1012.29 1012.63 1012.92 1013.14 1013.32 1013.47 1013.64 1013.83 1014.07 1014.34 1014.64 1014.95 1015.22 1015.44 1015.58 1015.62 1015.58 1015.45 1015.25 1015.02 1014.75 1014.48 1014.21 1013.94
1013.77 1014.34 1014.80 1015.08 1015.12 1014.92 1014.47 1013.80 1013.00 1012.14 1011.30 1010.58 1010.02 1009.69 1009.58 1009.70 1010.00 1010.42 1010.90 1011.39 1011.84 1012.23 1012.53 1012.78 1012.98 1013.18 1013.40 1013.66 1013.98 1014.34 1014.72 1015.09 1015.41 1015.65 1015.80 1015.85 1015.80 1015.65 1015.45 1015.21 1014.95 1014.69 1014.44 1014.19
1013.76 1014.26 1014.64 1014.83 1014.78 1014.47 1013.89 1013.11 1012.18 1011.22 1010.30 1009.53 1008.97 1008.65 1008.59 1008.78 1009.16 1009.66 1010.22 1010.77 1011.28 1011.71 1012.06 1012.36 1012.62 1012.89 1013.19 1013.54 1013.94 1014.38 1014.83 1015.25 1015.60 1015.87 1016.02 1016.05 1015.98 1015.83 1015.61 1015.37 1015.12 1014.88 1014.64 1014.41
1013.63 1013.98 1014.23 1014.29 1014.13 1013.71 1013.05 1012.19 1011.22 1010.21 1009.28 1008.51 1007.97 1007.69 1007.68 1007.92 1008.35 1008.91 1009.52 1010.14 1010.70 1011.19 1011.62 1011.99 1012.34 1012.70 1013.09 1013.53 1014.01 1014.52 1015.02 1015.47 1015.84 1016.10 1016.24 1016.26 1016.16 1015.99 1015.77 1015.53 1015.28 1015.05 1014.84 1014.62
1013.31 1013.46 1013.51 1013.42 1013.13 1012.63 1011.92 1011.04 1010.08 1009.11 1008.23 1007.52 1007.04 1006.83 1006.88 1007.17 1007.66 1008.27 1008.94 1009.60 1010.23 1010.80 1011.31 1011.77 1012.22 1012.67 1013.16 1013.68 1014.23 1014.79 1015.31 1015.77 1016.14 1016.38 1016.49 1016.47 1016.36 1016.16 1015.93 1015.69 1015.46 1015.24 1015.04 1014.84
1012.80 1012.69 1012.53 1012.25 1011.84 1011.26 1010.53 1009.69 1008.80 1007.94 1007.18 1006.59 1006.22 1006.11 1006.25 1006.63 1007.17 1007.84 1008.57 1009.29 1009.99 1010.64 1011.23 1011.78 1012.32 1012.86 1013.42 1014.00 1014.59 1015.17 1015.69 1016.14 1016.47 1016.67 1016.75 1016.70 1016.56 1016.36 1016.12 1015.88 1015.66 1015.45 1015.27 1015.08
1012.12 1011.75 1011.34 1010.88 1010.34 1009.71 1008.99 1008.23 1007.47 1006.76 1006.18 1005.76 1005.56 1005.60 1005.86 1006.33 1006.95 1007.69 1008.47 1009.26 1010.03 1010.75 1011.42 1012.05 1012.66 1013.26 1013.86 1014.47 1015.06 1015.62 1016.11 1016.52 1016.80 1016.97 1017.00 1016.93 1016.77 1016.56 1016.33 1016.10 1015.89 1015.70 1015.53 1015.36
1011.34 1010.70 1010.07 1009.43 1008.79 1008.12 1007.45 1006.80 1006.19 1005.68 1005.31 1005.10 1005.10 1005.30 1005.70 1006.29 1007.01 1007.81 1008.67 1009.52 1010.34 1011.12 1011.84 1012.53 1013.18 1013.80 1014.41 1015.01 1015.57 1016.08 1016.52 1016.86 1017.10 1017.21 1017.22 1017.13 1016.97 1016.77 1016.55 1016.34 1016.16 1015.99 1015.84 1015.68
1010.51 1009.65 1008.82 1008.04 1007.32 1006.65 1006.04 1005.52 1005.09 1004.78 1004.63 1004.64 1004.84 1005.22 1005.77 1006.48 1007.29 1008.17 1009.08 1009.99 1010.85 1011.67 1012.43 1013.13 1013.79 1014.41 1014.99 1015.53 1016.04 1016.48 1016.85 1017.13 1017.31 1017.39 1017.38 1017.29 1017.15 1016.97 1016.79 1016.62 1016.46 1016.32 1016.18 1016.03
1009.68 1008.65 1007.69 1006.82 1006.05 1005.41 1004.88 1004.49 1004.23 1004.12 1004.18 1004.39 1004.78 1005.32 1006.01 1006.82 1007.72 1008.66 1009.62 1010.56 1011.46 1012.29 1013.06 1013.76 1014.39 1014.97 1015.50 1015.98 1016.40 1016.77 1017.07 1017.29 1017.43 1017.50 1017.49 1017.42 1017.32 1017.19 1017.05 1016.92 1016.79 1016.67 1016.55 1016.41
Thickness
5761 5745 5734 5739 5744 5744 5739 5732 5727 5734 5748 5740 5732 5731 5737 5743 5741 5738 5735 5734 5734 5736 5740 5741 5741 5740 5737 5734 5732 5729 5726 5724 5722 5719 5716 5713 5710 5710 5710 5710 5709 5708 5706 5704
5740 5735 5749 5755 5753 5748 5740 5730 5728 5736 5746 5740 5730 5730 5738 5742 5741 5741 5738 5736 5736 5735 5735 5736 5737 5737 5735 5732 5730 5728 5725 5723 5721 5719 5716 5713 5710 5708 5707 5707 5706 5705 5703 5702
5732 5744 5759 5753 5746 5740 5737 5731 5729 5730 5737 5738 5729 5721 5729 5739 5743 5743 5742 5741 5739 5737 5734 5733 5734 5733 5733 5731 5729 5728 5725 5722 5720 5718 5715 5711 5708 5705 5703 5702 5701 5701 5700 5699
5740 5753 5754 5746 5742 5741 5728 5743 5741 5735 5721 5710 5719 5696 5718 5729 5732 5736 5737 5737 5737 5738 5736 5734 5733 5731 5731 5731 5730 5727 5724 5721 5718 5716 5712 5708 5703 5698 5698 5698 5698 5698 5698 5696
5735 5747 5746 5740 5743 5746 5738 5748 5742 5734 5721 5709 5711 5698 5707 5724 5723 5730 5735 5737 5737 5737 5736 5735 5733 5732 5732 5731 5729 5726 5722 5719 5716 5714 5711 5707 5702 5699 5698 5697 5695 5695 5694 5694
5741 5752 5751 5748 5752 5752 5748 5738 5729 5717 5706 5692 5705 5697 5700 5715 5726 5731 5735 5737 5737 5736 5736 5734 5733 5732 5729 5728 5726 5723 5719 5716 5714 5712 5709 5705 5701 5698 5695 5693 5691 5690 5690 5690
5727 5739 5750 5753 5739 5741 5735 5709 5688 5685 5678 5685 5708 5701 5706 5729 5738 5738 5736 5735 5735 5734 5732 5730 5728 5726 5724 5723 5722 5720 5716 5713 5711 5709 5707 5704 5701 5697 5694 5692 5689 5688 5686 5685
5706 5709 5734 5744 5736 5727 5726 5710 5684 5674 5673 5684 5703 5699 5715 5738 5742 5742 5740 5736 5733 5730 5729 5728 5727 5724 5722 5721 5719 5716 5713 5710 5708 5706 5704 5702 5699 5696 5693 5691 5689 5687 5685 5684
5703 5707 5735 5743 5745 5736 5720 5709 5709 5690 5686 5680 5688 5704 5720 5733 5732 5732 5731 5729 5727 5727 5726 5725 5724 5722 5720 5717 5716 5714 5711 5708 5706 5704 5702 5700 5697 5695 5692 5690 5688 5686 5685 5684
5715 5705 5722 5736 5739 5735 5729 5717 5696 5686 5673 5667 5682 5690 5696 5711 5717 5722 5723 5722 5722 5723 5722 5721 5720 5719 5717 5716 5714 5712 5710 5706 5704 5702 5700 5698 5695 5694 5691 5688 5686 5685 5683 5682
5715 5700 5705 5717 5715 5713 5715 5710 5698 5682 5677 5665 5664 5683 5716 5716 5719 5719 5721 5721 5720 5719 5717 5716 5716 5716 5715 5713 5710 5707 5705 5703 5701 5699 5697 5695 5693 5691 5689 5686 5684 5683 5681 5680
5708 5692 5686 5700 5718 5725 5717 5709 5695 5678 5674 5670 5664 5682 5723 5722 5722 5721 5720 5720 5719 5718 5716 5714 5712 5711 5709 5707 5705 5703 5701 5699 5697 5696 5694 5692 5690 5688 5686 5683 5682 5680 5679 5677
5703 5686 5673 5680 5692 5706 5707 5708 5700 5687 5674 5665 5661 5681 5716 5717 5717 5718 5716 5715 5714 5713 5712 5709 5707 5705 5703 5702 5701 5698 5697 5696 5694 5693 5690 5688 5686 5684 5682 5680 5679 5678 5676 5674
5701 5681 5672 5669 5676 5688 5692 5699 5700 5685 5668 5666 5673 5685 5701 5704 5706 5708 5709 5710 5709 5707 5706 5704 5701 5699 5698 5697 5695 5694 5692 5692 5691 5688 5686 5683 5682 5680 5679 5677 5676 5675 5673 5671
5690 5675 5678 5681 5687 5689 5690 5693 5694 5687 5681 5674 5681 5686 5696 5701 5703 5705 5706 5705 5703 5701 5700 5699 5696 5694 5693 5691 5690 5689 5687 5686 5686 5683 5681 5679 5679 5678 5676 5674 5672 5671 5669 5668
5677 5672 5673 5674 5683 5683 5683 5688 5690 5689 5688 5684 5684 5686 5699 5703 5702 5700 5700 5699 5697 5696 5695 5694 5693 5690 5688 5687 5686 5684 5683 5682 5680 5678 5676 5675 5674 5673 5671 5669 5668 5666 5665 5663
5663 5661 5657 5654 5666 5670 5666 5681 5684 5686 5689 5686 5678 5686 5695 5694 5695 5695 5695 5695 5694 5693 5692 5690 5688 5687 5685 5684 5683 5681 5679 5677 5675 5673 5672 5671 5670 5668 5666 5665 5663 5661 5659 5658
5657 5652 5644 5644 5652 5646 5669 5687 5688 5683 5685 5686 5687 5690 5692 5693 5695 5697 5696 5693 5691 5691 5689 5687 5685 5683 5682 5681 5679 5678 5675 5672 5670 5668 5666 5665 5664 5662 5661 5659 5657 5656 5654 5652
5659 5649 5637 5633 5634 5644 5666 5680 5681 5675 5673 5682 5682 5684 5686 5688 5687 5686 5692 5692 5691 5690 5687 5685 5684 5681 5678 5676 5675 5672 5669 5667 5665 5663 5662 5660 5660 5658 5656 5654 5652 5651 5649 5647
5652 5646 5634 5627 5628 5630 5657 5676 5683 5674 5660 5676 5677 5677 5677 5676 5664 5672 5685 5686 5686 5685 5684 5681 5678 5676 5673 5672 5670 5666 5663 5661 5660 5659 5658 5657 5656 5654 5651 5650 5648 5646 5645 5643
5635 5630 5624 5621 5621 5634 5658 5671 5671 5648 5653 5672 5672 5671 5670 5666 5667 5674 5679 5681 5681 5680 5678 5676 5673 5670 5670 5668 5665 5661 5659 5657 5657 5656 5654 5652 5651 5649 5648 5645 5643 5641 5639 5637
5626 5620 5617 5614 5613 5626 5658 5659 5650 5650 5661 5665 5666 5667 5666 5666 5668 5670 5672 5673 5674 5673 5672 5670 5667 5666 5665 5664 5661 5657 5655 5655 5653 5651 5649 5647 5645 5644 5643 5639 5637 5635 5632 5630
5622 5624 5621 5621 5627 5643 5651 5652 5656 5656 5655 5658 5659 5661 5661 5661 5661 5663 5664 5666 5667 5667 5666 5664 5662 5660 5659 5659 5657 5653 5652 5651 5648 5645 5643 5641 5639 5638 5636 5634 5631 5628 5626 5624
5618 5624 5619 5619 5628 5636 5642 5645 5649 5651 5652 5654 5655 5656 5656 5654 5654 5654 5656 5657 5659 5659 5659 5658 5656 5653 5653 5653 5652 5650 5648 5646 5643 5640 5637 5635 5633 5631 5630 5628 5626 5623 5620 5619
5610 5613 5610 5611 5620 5627 5632 5635 5637 5641 5645 5647 5649 5649 5649 5649 5648 5648 5649 5650 5651 5652 5652 5651 5650 5648 5647 5647 5646 5645 5643 5640 5637 5634 5632 5630 5627 5625 5623 5622 5621 5620 5619 5617
5604 5605 5603 5606 5615 5614 5621 5629 5632 5633 5636 5639 5640 5640 5642 5643 5643 5643 5642 5643 5643 5644 5644 5643 5643 5642 5641 5641 5639 5639 5637 5635 5632 5628 5626 5623 5621 5619 5617 5614 5613 5614 5614 5613